sat.trackr.live / text

‹ back to catalog

CYGFM01

NORAD 41887 · 2016-078D

PAYLOAD INACTIVE UNKNOWN

§ Identity

Operator
Country
US
Launch date
2016-12-15
Launch site
ERAS
Launch vehicle
Mass (kg)
RCS (m²)
0.23

Purposes: earth_obs

External: N2YO · Heavens-Above · Gunter

§ Orbital elements

Epoch: 2026-09-19T15:44:18.242880Z

Period
92.21 min
Inclination
34.9401°
Eccentricity
0.0004858
Mean motion
15.61646817 rev/d
Perigee alt
379.6 km
Apogee alt
386.2 km
Semi-major
6,761.0 km
B*
2.4814e-4
RAAN
353.3274°
Arg perigee
327.3062°
Mean anomaly
32.7363°
Rev number
54,346

§ Raw data

CYGFM011 41887U 16078D   26262.65576670  .00022124  00000+0  24814-3 0  99922 41887  34.9401 353.3274 0004858 327.3062  32.7363 15.61646817543467

JSON: /api/v1/satellites/41887 · /tle

For live sub-satellite position, see the globe view (requires WebGL).

§ Visibility from observer

Set your observer location to see the next 7 days of passes ≥ 10°. The values pass through the URL so the page stays shareable.

No JS? Fill the form by hand. The geolocation button needs JavaScript.